Theta_e
310 310 310 311 312 313 315 315 315 316 317 316 315 315 315 315 315 315 314 315 315 315 314 314 313 313 313 313 312 312 311 310 309 309 308 306 304 303 303 302 298 293
309 309 309 310 311 313 314 314 315 316 316 316 316 315 315 315 316 316 314 315 314 313 313 312 311 310 311 310 310 309 309 308 308 308 306 304 303 302 301 299 294 291
308 308 309 310 310 312 313 313 313 314 314 315 315 315 315 315 315 315 315 315 313 312 312 310 308 307 306 306 306 307 307 307 306 306 304 303 302 301 298 294 291 290
307 307 307 309 310 311 312 312 311 311 312 313 314 315 314 314 314 315 314 313 312 312 311 309 305 302 300 301 303 304 305 305 305 304 303 301 300 298 294 291 290 290
306 305 306 307 308 310 311 311 310 310 311 313 314 314 314 313 313 314 314 312 310 310 308 304 300 297 297 299 301 302 303 303 303 303 302 299 296 293 291 290 290 289
305 305 305 305 306 308 309 309 309 310 311 312 312 311 311 312 311 312 313 311 309 307 303 299 296 295 297 299 300 301 302 302 301 301 299 295 292 290 290 290 289 289
304 304 304 304 305 307 308 308 308 309 310 311 310 309 310 311 310 310 311 310 307 305 301 296 294 295 297 299 300 300 301 301 300 297 294 291 290 290 290 289 289 288
303 302 303 304 305 306 306 306 307 308 309 308 307 307 308 310 309 308 309 308 305 302 298 294 293 293 295 298 299 299 299 297 295 292 290 290 290 290 289 289 288 288
301 301 303 303 304 304 304 305 306 307 308 306 306 306 307 308 308 306 307 307 304 299 295 293 292 292 293 295 296 296 294 292 291 290 290 290 290 290 289 288 288 287
301 301 302 302 302 302 303 304 305 307 307 306 305 304 304 306 306 305 305 305 301 297 294 291 290 290 291 292 292 291 291 290 290 290 290 290 290 290 289 288 288 288
301 302 302 302 302 302 302 302 304 305 306 305 304 303 303 305 305 303 302 302 299 296 293 291 290 289 290 289 289 289 290 290 290 290 290 290 290 289 289 289 288 288
301 301 302 302 301 301 301 302 303 304 304 304 303 303 304 305 303 301 300 300 299 296 293 291 290 289 289 289 289 289 290 290 290 290 290 290 289 289 289 289 288 288
300 301 302 301 301 301 301 301 302 303 303 303 303 304 304 303 301 299 299 299 298 295 292 291 289 289 289 289 289 289 289 290 290 290 290 289 289 288 288 288 288 288
299 300 301 301 301 301 301 301 301 302 302 302 302 302 301 300 299 298 298 298 296 293 291 289 288 288 288 288 288 289 289 289 289 289 289 289 288 288 288 288 288 287
299 299 299 300 300 299 299 299 300 300 300 300 300 299 298 297 296 296 295 294 293 291 289 287 287 287 288 288 288 289 289 289 289 289 289 288 288 288 287 287 287 287
298 297 297 297 297 298 298 298 298 298 297 297 296 296 295 294 293 292 291 291 290 288 286 286 286 287 287 288 288 289 289 289 288 289 289 289 288 288 287 287 287 287
297 296 296 296 296 296 296 296 296 296 296 295 294 292 292 291 290 289 289 288 287 286 285 286 286 286 287 287 288 288 288 288 288 289 288 288 288 287 287 287 287 288
296 295 295 294 295 295 294 294 294 295 293 292 291 290 289 289 288 287 287 286 286 285 285 286 286 286 286 287 287 287 288 288 288 288 288 288 287 287 287 288 288 287
295 294 294 293 293 293 292 291 292 293 292 291 290 289 288 287 286 286 285 285 285 285 285 285 285 286 286 286 286 287 287 287 287 288 288 288 287 287 288 288 287 287
294 294 293 292 292 292 291 290 291 293 293 291 289 288 286 285 285 285 284 284 284 284 284 284 285 285 285 285 286 286 286 286 287 287 287 287 288 288 288 288 287 287
293 293 292 292 291 290 290 289 290 291 290 289 287 287 286 285 285 284 283 283 283 283 283 284 284 284 285 285 285 285 285 285 286 287 287 287 287 287 287 287 287 288
293 292 291 291 290 289 289 289 288 288 288 287 286 286 285 285 284 283 283 283 283 283 283 283 284 284 284 284 284 284 285 285 285 286 286 287 287 287 287 287 288 288
292 291 290 290 289 289 288 288 288 287 286 286 285 284 284 284 283 283 283 283 282 282 282 283 283 283 283 284 284 284 284 285 285 286 286 287 287 288 288 288 287 288
291 291 290 289 289 289 288 288 287 287 286 285 285 284 284 283 283 282 282 282 282 282 283 283 283 283 283 283 283 284 284 284 285 286 287 289 289 288 287 287 287 288
291 290 290 290 289 288 288 287 286 286 285 285 284 284 284 283 283 282 282 282 282 282 282 283 283 283 283 283 283 283 284 285 287 289 290 290 289 287 287 287 287 287
290 290 290 289 289 288 287 287 286 285 285 284 284 284 284 283 283 282 282 282 282 282 282 282 282 283 283 283 283 284 286 288 290 291 291 290 288 287 287 287 286 286
Wind_Speed
28 25 30 32 33 33 33 34 36 37 37 36 33 31 30 30 32 30 28 31 34 36 36 34 33 33 34 35 38 40 40 39 38 36 34 32 29 27 27 27 24 22
33 31 32 32 33 34 33 35 37 36 36 35 33 32 30 30 32 31 29 30 33 34 34 33 33 33 34 36 37 38 38 38 37 35 33 32 29 26 26 26 24 22
34 33 34 34 34 34 34 34 35 34 35 35 34 33 31 31 32 31 30 31 33 33 33 32 32 32 33 35 36 37 37 37 36 34 33 30 28 26 26 26 24 21
34 33 34 35 34 34 35 35 35 34 34 34 33 32 32 33 32 31 31 32 33 33 33 32 32 32 33 34 35 36 36 36 35 33 31 29 27 27 27 25 23 21
33 33 33 35 36 35 35 36 36 34 33 33 31 31 33 35 33 32 32 33 34 34 33 33 33 33 33 33 34 35 35 35 34 32 31 29 28 27 27 25 23 21
31 32 33 33 34 36 35 35 35 34 34 33 31 31 33 35 35 32 32 32 33 34 34 34 34 33 34 34 35 35 35 34 33 32 31 30 29 28 26 25 23 21
30 33 34 33 33 35 35 34 34 34 34 33 31 31 32 35 34 31 30 32 33 34 35 35 34 34 34 35 35 35 35 34 33 32 32 31 30 28 26 25 23 21
30 31 34 34 34 35 35 34 34 35 34 32 32 31 32 34 33 31 30 32 34 36 36 36 36 35 35 35 36 35 34 34 33 33 33 31 30 28 26 25 23 21
31 32 34 34 34 34 34 34 35 34 33 32 32 32 33 35 33 31 31 33 36 37 37 37 37 36 36 36 36 35 35 34 34 33 33 31 29 28 27 25 23 20
34 34 34 35 35 35 35 35 35 34 33 32 32 33 34 33 30 29 31 33 36 38 38 38 38 38 37 37 36 36 35 35 34 33 32 30 29 28 26 25 23 21
36 36 35 36 36 36 36 36 35 34 33 32 32 33 33 31 29 30 31 33 37 39 40 39 39 39 38 38 37 36 36 35 34 33 31 30 28 27 25 24 23 21
37 37 37 37 37 37 37 37 36 34 33 32 32 33 32 31 31 31 31 34 37 40 41 41 41 40 40 39 38 37 35 35 33 32 30 29 28 26 25 23 22 20
37 39 38 38 38 38 38 37 36 34 33 33 33 34 33 32 32 32 32 34 37 40 41 42 42 42 41 40 39 37 35 34 32 31 30 28 28 26 24 22 21 18
36 38 38 39 38 38 38 37 36 34 34 34 35 35 34 33 32 33 33 34 37 40 41 41 42 42 41 40 38 37 35 33 32 31 30 29 27 25 24 22 20 18
35 36 37 38 38 37 38 37 35 34 33 34 34 34 33 32 31 32 33 34 36 39 40 40 41 41 41 40 38 36 34 33 32 31 29 28 26 25 24 22 20 18
35 35 35 36 37 37 37 36 35 33 33 33 33 32 31 30 30 31 32 34 36 38 38 38 39 40 39 38 37 36 35 34 32 30 28 27 26 25 24 22 19 17
32 33 34 35 36 36 36 35 34 32 31 32 31 30 30 29 30 31 32 34 36 37 38 38 39 39 38 38 37 36 35 34 32 30 28 27 26 24 22 20 18 18
30 30 32 34 35 35 34 33 32 30 29 29 29 29 29 29 30 31 32 34 35 36 38 39 39 38 38 38 37 35 34 33 31 30 28 26 24 21 19 18 18 19
28 29 31 33 33 33 32 31 30 29 29 29 29 29 29 29 30 31 32 33 34 36 37 38 38 38 38 37 36 35 33 32 30 29 26 24 21 19 18 19 19 18
28 28 29 31 31 30 30 30 30 29 29 29 29 29 28 28 29 30 32 33 34 35 35 35 36 36 36 36 35 34 32 30 28 26 23 20 19 19 18 18 18 19
28 28 28 29 29 29 29 29 29 29 29 28 28 28 28 29 29 30 31 31 32 32 33 33 33 34 35 35 34 32 30 29 26 24 22 20 19 18 17 17 19 21
27 28 27 27 28 28 28 28 28 27 27 27 27 27 27 27 28 29 30 30 30 31 31 31 32 32 33 32 31 30 29 27 25 23 21 19 17 16 17 20 22 23
27 28 27 27 28 28 27 28 27 27 27 26 26 26 26 26 26 27 28 28 29 30 30 31 30 29 29 29 29 28 27 25 24 21 18 15 15 18 22 23 24 25
26 27 27 26 27 27 27 27 27 26 26 26 25 25 25 24 24 25 25 26 27 28 29 29 29 27 27 27 26 25 24 22 20 16 15 16 19 22 24 24 26 28
24 26 26 26 26 26 26 26 26 25 25 24 24 23 23 23 23 23 23 23 24 25 26 26 26 25 25 25 23 22 21 18 15 15 17 20 22 24 25 26 29 30
23 24 25 25 25 25 25 24 24 24 24 23 23 22 22 22 22 22 22 22 22 23 23 23 24 24 24 23 22 20 18 15 15 17 20 22 23 24 26 28 30 31
Wind_Direction
215 217 219 220 220 221 224 224 219 215 214 215 215 215 216 217 218 218 218 217 214 212 213 215 215 215 217 217 215 213 211 212 211 211 211 209 210 211 210 208 206 205
218 221 221 223 224 223 226 227 222 217 217 220 221 219 218 218 219 219 217 215 215 214 215 216 216 216 219 218 215 212 211 209 209 209 209 208 209 209 208 206 203 202
218 221 223 224 225 222 222 222 221 220 221 224 224 220 218 218 217 218 217 215 214 214 215 218 218 218 219 217 214 211 209 207 207 206 206 206 207 206 204 202 199 199
218 221 222 224 225 223 222 223 223 223 225 226 224 220 220 219 215 215 216 215 214 213 214 217 218 218 217 214 210 207 206 206 205 204 203 203 204 202 199 197 195 195
220 222 223 224 225 224 225 226 226 226 227 226 223 223 224 219 213 212 214 214 213 213 213 215 216 216 214 209 206 204 203 203 203 203 202 200 198 197 195 193 193 193
221 223 224 225 225 226 228 229 229 228 225 224 225 228 226 217 211 212 214 214 213 213 213 214 213 213 210 206 203 203 202 201 201 200 198 196 193 191 192 193 193 191
220 222 224 224 225 228 230 230 230 226 224 224 227 229 225 217 211 211 216 218 215 214 213 213 213 211 208 204 202 201 201 200 198 195 194 192 189 189 191 192 193 191
219 221 224 224 224 227 228 229 227 225 225 227 228 228 224 217 211 211 217 221 218 215 213 212 212 211 207 203 200 199 198 197 194 192 190 189 188 189 191 192 193 193
220 222 223 223 224 225 226 226 225 225 228 229 229 226 221 215 214 215 219 221 219 215 213 211 210 208 205 201 199 198 196 194 193 192 191 190 191 192 193 193 193 194
220 222 222 223 223 224 224 224 225 227 229 230 229 225 218 215 219 222 222 222 219 215 212 210 208 205 202 199 198 198 196 194 192 193 193 194 195 196 195 195 195 196
220 221 221 223 223 224 224 224 225 227 228 228 227 223 218 219 225 225 224 223 219 215 212 210 207 204 201 199 198 198 198 196 194 194 195 196 198 200 199 199 200 200
219 220 222 223 224 224 224 224 224 225 226 226 224 220 219 224 227 225 224 224 220 216 213 210 207 204 201 200 199 198 197 197 196 196 196 199 201 203 204 205 205 204
218 220 222 223 223 224 224 224 224 225 225 224 221 219 221 225 226 224 224 224 220 216 212 210 207 203 201 200 199 198 197 197 196 197 199 201 203 205 206 207 208 208
219 220 221 222 223 224 223 223 224 224 225 223 221 220 221 223 224 224 224 222 219 215 212 209 206 202 200 199 198 198 197 197 198 199 201 202 204 206 207 208 210 210
219 219 220 221 222 221 221 222 222 223 223 223 222 222 223 224 224 224 222 218 215 212 210 207 204 202 201 201 200 199 198 199 200 201 202 203 205 207 208 210 211 210
219 219 219 219 218 219 219 219 220 220 220 221 222 223 223 223 221 220 219 215 211 209 206 205 204 203 203 203 204 203 202 201 201 202 204 207 208 209 209 210 211 215
218 217 217 216 216 217 217 217 218 218 219 220 220 220 220 219 217 216 216 213 210 207 205 205 205 203 203 203 204 206 206 205 204 205 206 208 210 211 211 212 217 225
215 215 214 214 215 215 214 215 216 216 217 217 216 216 217 216 215 215 214 211 209 207 206 206 205 203 203 204 205 206 208 208 207 206 206 209 210 211 213 220 227 230
214 212 212 212 212 212 211 211 212 212 214 215 214 214 214 212 212 213 212 209 207 207 206 205 204 203 204 205 206 206 207 207 207 207 209 210 209 212 221 228 230 230
213 211 210 210 209 208 207 208 209 211 213 214 212 210 208 208 210 211 210 208 207 206 206 205 204 203 204 205 205 206 207 207 208 209 210 210 213 221 228 230 230 236
211 209 207 206 206 204 204 206 208 209 210 209 208 207 207 207 209 209 207 206 206 206 204 204 204 204 205 206 206 206 207 207 208 208 208 212 218 224 228 231 236 244
208 206 203 202 202 201 203 204 205 206 206 206 205 205 206 207 207 208 206 204 203 203 202 203 205 206 206 206 206 205 205 205 206 207 210 215 221 227 234 238 242 249
206 203 200 199 199 199 200 202 203 204 204 204 201 199 202 204 204 205 205 203 202 201 201 203 204 205 206 205 203 203 203 203 204 207 213 223 232 238 240 242 246 256
203 202 199 198 198 199 200 201 202 202 202 202 199 197 198 199 200 202 203 204 204 203 203 204 203 202 203 202 201 202 203 202 204 212 227 239 243 243 243 246 253 261
202 201 200 198 198 199 200 200 199 200 199 197 196 196 195 194 196 198 200 202 205 204 203 204 201 199 200 201 200 199 200 203 215 231 243 247 248 247 248 252 258 264
199 198 198 198 198 197 198 198 197 196 195 192 192 194 193 193 194 196 197 199 201 202 203 204 202 198 199 198 195 195 201 217 235 244 248 250 251 251 253 257 262 267